Back to catalog

TELEOS 2

AliveScienceVLEO
NORAD 56310·PAYLOAD·🇸🇬 Singapore

Launched Apr 22, 2023 from Satish Dhawan Space Centre

Loading…

Next Passes (next 24 hours)

TLE

FreshSource: Space-Track

Epoch: Sep 14, 2026, 11:15 UTC

1 56310U 23057C   26257.46877118  .00004262  00000-0  30692-3 0  9993
2 56310   9.9885 274.1131 0000770 276.3982  83.6144 14.96387121186199

Track TELEOS 2 in real time with AllMySat

Download on the App Store